Time,TemperatureF,DewpointF,PressureIn,WindDirection,WindDirectionDegrees,WindSpeedMPH,WindSpeedGustMPH,Humidity,HourlyPrecipIn,Conditions,Clouds,dailyrainin,SoftwareType,DateUTC
2014-12-28 00:22:00,62.0,59.0,30.10,East,85,3.0,7.0,91,0.00,,,0.25,,2014-12-28 06:22:00,
2014-12-28 00:42:00,62.0,59.0,30.09,ESE,105,2.0,6.0,91,0.00,,,0.25,,2014-12-28 06:42:00,
2014-12-28 00:52:00,62.0,59.0,30.09,South,174,0.0,2.0,91,0.00,,,0.25,,2014-12-28 06:52:00,
2014-12-28 01:22:00,63.0,60.0,30.08,East,90,3.0,7.0,91,0.00,,,0.25,,2014-12-28 07:22:00,
2014-12-28 01:42:00,63.0,61.0,30.07,SE,133,1.0,6.0,92,0.00,,,0.25,,2014-12-28 07:42:00,
2014-12-28 01:52:00,63.0,61.0,30.07,SE,126,1.0,5.0,92,0.00,,,0.25,,2014-12-28 07:52:00,
2014-12-28 02:12:00,64.0,62.0,30.07,SSW,212,1.0,7.0,92,0.00,,,0.25,,2014-12-28 08:12:00,
2014-12-28 02:22:00,64.0,62.0,30.07,East,91,2.0,6.0,93,0.00,,,0.25,,2014-12-28 08:22:00,
2014-12-28 02:42:00,64.0,62.0,30.07,SSE,153,2.0,8.0,93,0.00,,,0.25,,2014-12-28 08:42:00,
2014-12-28 02:52:00,64.0,62.0,30.06,East,97,2.0,5.0,94,0.00,,,0.25,,2014-12-28 08:52:00,
2014-12-28 03:22:00,65.0,64.0,30.06,SE,142,1.0,3.0,95,0.00,,,0.25,,2014-12-28 09:22:00,
2014-12-28 03:43:00,66.0,65.0,30.06,ESE,103,2.0,5.0,96,0.00,,,0.25,,2014-12-28 09:43:00,
2014-12-28 03:54:00,66.0,65.0,30.06,ESE,115,1.0,4.0,96,0.00,,,0.25,,2014-12-28 09:54:00,
2014-12-28 04:13:00,67.0,66.0,30.06,SE,137,3.0,9.0,97,0.00,,,0.25,,2014-12-28 10:13:00,
2014-12-28 04:23:00,67.0,66.0,30.06,SE,134,2.0,5.0,97,0.00,,,0.25,,2014-12-28 10:23:00,
2014-12-28 04:43:00,67.0,66.0,30.05,SE,131,4.0,9.0,97,0.00,,,0.25,,2014-12-28 10:43:00,
2014-12-28 04:53:00,68.0,67.0,30.05,ESE,113,2.0,7.0,98,0.00,,,0.25,,2014-12-28 10:53:00,
2014-12-28 05:13:00,68.0,67.0,30.05,SE,135,2.0,6.0,98,0.00,,,0.25,,2014-12-28 11:13:00,
2014-12-28 05:22:00,68.0,67.0,30.06,SE,130,1.0,6.0,98,0.00,,,0.25,,2014-12-28 11:22:00,
2014-12-28 05:43:00,69.0,68.0,30.06,SE,146,2.0,6.0,98,0.00,,,0.25,,2014-12-28 11:43:00,
2014-12-28 05:52:00,69.0,68.0,30.06,SW,220,2.0,7.0,98,0.00,,,0.25,,2014-12-28 11:52:00,
2014-12-28 06:12:00,69.0,68.0,30.06,ESE,120,2.0,9.0,98,0.00,,,0.25,,2014-12-28 12:12:00,
2014-12-28 06:22:00,69.0,68.0,30.06,SE,145,3.0,8.0,97,0.00,,,0.25,,2014-12-28 12:22:00,
2014-12-28 06:42:00,69.0,68.0,30.07,SSE,157,3.0,8.0,97,0.00,,,0.25,,2014-12-28 12:42:00,
2014-12-28 06:52:00,69.0,68.0,30.08,SE,133,2.0,5.0,97,0.01,,,0.26,,2014-12-28 12:52:00,
2014-12-28 07:22:00,69.0,68.0,30.08,WSW,256,1.0,4.0,97,0.01,,,0.26,,2014-12-28 13:22:00,
2014-12-28 07:42:00,69.0,68.0,30.09,WSW,240,0.0,3.0,97,0.05,,,0.28,,2014-12-28 13:42:00,
2014-12-28 07:52:00,69.0,68.0,30.09,SW,217,0.0,3.0,98,0.08,,,0.33,,2014-12-28 13:52:00,
2014-12-28 08:22:00,69.0,68.0,30.09,SSW,198,0.0,3.0,98,0.21,,,0.46,,2014-12-28 14:22:00,
2014-12-28 08:42:00,69.0,68.0,30.09,South,172,0.0,2.0,98,0.17,,,0.46,,2014-12-28 14:42:00,
2014-12-28 08:52:00,69.0,68.0,30.09,SSW,194,2.0,5.0,98,0.13,,,0.46,,2014-12-28 14:52:00,
2014-12-28 09:22:00,70.0,69.0,30.10,SE,143,0.0,3.0,98,0.00,,,0.46,,2014-12-28 15:22:00,
2014-12-28 09:44:00,69.0,68.0,30.11,SSW,200,0.0,5.0,98,0.05,,,0.51,,2014-12-28 15:44:00,
2014-12-28 09:53:00,69.0,68.0,30.10,SSW,202,0.0,5.0,98,0.18,,,0.64,,2014-12-28 15:53:00,
2014-12-28 10:23:00,70.0,69.0,30.10,SW,214,0.0,2.0,98,0.18,,,0.64,,2014-12-28 16:23:00,
2014-12-28 10:43:00,71.0,70.0,30.10,West,274,0.0,2.0,98,0.13,,,0.64,,2014-12-28 16:43:00,
2014-12-28 10:53:00,71.0,70.0,30.09,SSW,212,1.0,4.0,97,0.00,,,0.64,,2014-12-28 16:53:00,
2014-12-28 11:23:00,72.0,71.0,30.08,WSW,249,2.0,5.0,96,0.00,,,0.64,,2014-12-28 17:23:00,
2014-12-28 11:43:00,73.0,71.0,30.07,South,174,0.0,6.0,94,0.00,,,0.64,,2014-12-28 17:43:00,
2014-12-28 11:52:00,73.0,71.0,30.06,West,264,1.0,4.0,92,0.00,,,0.64,,2014-12-28 17:52:00,
2014-12-28 12:12:00,75.0,71.0,30.05,West,263,0.0,4.0,87,0.00,,,0.64,,2014-12-28 18:12:00,
2014-12-28 12:23:00,76.0,70.0,30.05,SSW,211,1.0,5.0,83,0.00,,,0.64,,2014-12-28 18:23:00,
2014-12-28 12:44:00,76.0,71.0,30.03,SSW,207,0.0,5.0,84,0.00,,,0.64,,2014-12-28 18:44:00,
2014-12-28 12:53:00,76.0,70.0,30.03,SSW,210,0.0,4.0,81,0.00,,,0.64,,2014-12-28 18:53:00,
2014-12-28 13:22:00,77.0,70.0,30.01,SW,221,1.0,4.0,78,0.00,,,0.64,,2014-12-28 19:22:00,
2014-12-28 13:42:00,76.0,69.0,30.01,SSW,203,1.0,3.0,78,0.00,,,0.64,,2014-12-28 19:42:00,
2014-12-28 13:52:00,77.0,70.0,30.00,WSW,255,0.0,3.0,78,0.00,,,0.64,,2014-12-28 19:52:00,
2014-12-28 14:22:00,77.0,69.0,30.00,WNW,290,1.0,4.0,76,0.00,,,0.64,,2014-12-28 20:22:00,
2014-12-28 14:42:00,77.0,69.0,30.00,South,174,0.0,4.0,76,0.00,,,0.57,,2014-12-28 20:42:00,
2014-12-28 14:52:00,77.0,70.0,30.00,SSE,150,0.0,4.0,78,0.00,,,0.57,,2014-12-28 20:52:00,
2014-12-28 15:12:00,75.0,69.0,30.00,SSW,213,0.0,5.0,83,0.00,,,0.57,,2014-12-28 21:12:00,
2014-12-28 15:22:00,75.0,70.0,30.00,SSE,166,0.0,4.0,84,0.00,,,0.57,,2014-12-28 21:22:00,
2014-12-28 15:43:00,74.0,69.0,30.00,SSW,193,1.0,5.0,84,0.00,,,0.48,,2014-12-28 21:43:00,
2014-12-28 15:53:00,72.0,68.0,30.01,SW,220,2.0,5.0,87,0.00,,,0.48,,2014-12-28 21:53:00,
2014-12-28 16:23:00,70.0,68.0,30.02,West,270,2.0,8.0,93,0.00,,,0.48,,2014-12-28 22:23:00,
2014-12-28 16:43:00,69.0,67.0,30.02,SSW,210,0.0,4.0,94,0.00,,,0.40,,2014-12-28 22:43:00,
2014-12-28 16:53:00,68.0,67.0,30.00,East,89,2.0,4.0,95,0.01,,,0.41,,2014-12-28 22:53:00,
2014-12-28 17:22:00,68.0,67.0,30.01,WSW,243,0.0,3.0,95,0.01,,,0.41,,2014-12-28 23:22:00,
2014-12-28 17:43:00,68.0,67.0,30.01,ESE,103,0.0,1.0,95,0.01,,,0.41,,2014-12-28 23:43:00,
2014-12-28 17:53:00,67.0,66.0,30.00,ESE,103,0.0,0.0,95,0.00,,,0.41,,2014-12-28 23:53:00,
2014-12-28 18:22:00,66.0,65.0,30.00,NW,314,0.0,1.0,96,0.00,,,0.41,,2014-12-29 00:22:00,
2014-12-28 18:42:00,65.0,64.0,30.00,NW,314,0.0,2.0,97,0.00,,,0.41,,2014-12-29 00:42:00,
2014-12-28 18:52:00,65.0,64.0,30.01,NW,314,0.0,0.0,97,0.00,,,0.41,,2014-12-29 00:52:00,
2014-12-28 19:12:00,64.0,63.0,30.00,NW,314,0.0,0.0,97,0.00,,,0.41,,2014-12-29 01:12:00,
2014-12-28 19:22:00,63.0,62.0,30.01,NW,314,0.0,0.0,97,0.00,,,0.41,,2014-12-29 01:22:00,
2014-12-28 19:42:00,63.0,62.0,30.01,NW,314,0.0,0.0,98,0.00,,,0.41,,2014-12-29 01:42:00,
2014-12-28 19:52:00,62.0,61.0,30.02,NW,314,0.0,0.0,98,0.00,,,0.41,,2014-12-29 01:52:00,
2014-12-28 20:22:00,62.0,61.0,30.02,NW,314,0.0,0.0,98,0.00,,,0.41,,2014-12-29 02:22:00,
2014-12-28 20:42:00,62.0,61.0,30.02,NW,314,0.0,0.0,98,0.00,,,0.41,,2014-12-29 02:42:00,
2014-12-28 20:52:00,61.0,60.0,30.02,NW,314,0.0,0.0,98,0.00,,,0.41,,2014-12-29 02:52:00,
2014-12-28 21:12:00,61.0,60.0,30.03,NW,314,0.0,1.0,98,0.00,,,0.41,,2014-12-29 03:12:00,
2014-12-28 21:22:00,61.0,60.0,30.03,NW,314,0.0,0.0,98,0.00,,,0.41,,2014-12-29 03:22:00,
2014-12-28 21:43:00,61.0,61.0,30.03,NW,314,0.0,0.0,99,0.00,,,0.41,,2014-12-29 03:43:00,
2014-12-28 21:53:00,61.0,61.0,30.04,NW,314,0.0,1.0,99,0.00,,,0.41,,2014-12-29 03:53:00,
2014-12-28 22:23:00,63.0,63.0,30.04,WNW,300,0.0,1.0,99,0.00,,,0.41,,2014-12-29 04:23:00,